GW6623 Weather Reports


time (UTC)temp
C
wind
direction
speed
KPH
gust
KPH
rain 1hr
cm
rain 24hr
cm
rain mn
cm
humidity
%
barometer
mb
20260502151756 11 21 3.2 3.2 0.00 0.00 0.00 48 1022.6
20260502151253 11 51 1.6 3.2 0.00 0.00 0.00 49 1022.5
20260502150751 10 117 0.0 1.6 0.00 0.00 0.00 49 1022.3
20260502150247 9 247 1.6 3.2 0.00 0.00 0.00 51 1022.4
20260502130636 -1 240 0.0 1.6 0.00 0.00 0.00 84 1022.6
20260502130134 -2 230 0.0 0.0 0.00 0.00 0.00 83 1022.8
20260502123620 -3 230 0.0 0.0 0.00 0.00 0.00 86 1022.8
20260502123115 -3 229 0.0 0.0 0.00 0.00 0.00 86 1022.8
20260502122612 -3 230 0.0 1.6 0.00 0.00 0.00 86 1022.6
20260502122109 -3 230 0.0 0.0 0.00 0.00 0.00 86 1022.8
20260502121607 -3 277 1.6 1.6 0.00 0.00 0.00 86 1022.4
20260502121104 -3 283 1.6 3.2 0.00 0.00 0.00 88 1022.8
20260502120600 -3 229 0.0 0.0 0.00 0.00 0.00 89 1022.6
20260502115556 -3 229 0.0 0.0 0.00 0.00 0.00 88 1022.5
20260502115051 -3 230 0.0 0.0 0.00 0.00 0.00 86 1022.6
20260502114547 -3 230 0.0 0.0 0.00 0.00 0.00 85 1022.8
20260502114044 -3 230 0.0 0.0 0.00 0.00 0.00 85 1022.6
20260502113542 -3 230 0.0 1.6 0.00 0.00 0.00 85 1022.6
20260502113041 -3 233 0.0 1.6 0.00 0.00 0.00 85 1022.5
20260502112538 -3 227 0.0 0.0 0.00 0.00 0.00 86 1022.5
20260502112035 -3 227 0.0 0.0 0.00 0.00 0.00 85 1022.9
20260502111532 -3 227 0.0 0.0 0.00 0.00 0.00 86 1022.6
20260502111030 -3 228 0.0 0.0 0.00 0.00 0.00 85 1022.8
20260502110527 -3 229 0.0 1.6 0.00 0.00 0.00 85 1022.6
20260502110025 -2 269 1.6 3.2 0.00 0.00 0.00 85 1022.9
20260502105522 -2 159 0.0 1.6 0.00 0.00 0.00 86 1022.9
20260502105020 -2 117 0.0 0.0 0.00 0.00 0.00 86 1022.9
20260502104516 -2 116 0.0 0.0 0.00 0.00 0.00 84 1022.8
20260502104014 -2 113 0.0 0.0 0.00 0.00 0.00 83 1023.1
20260502103511 -2 16 0.0 1.6 0.00 0.00 0.00 83 1022.6
20260502103009 -2 215 0.0 0.0 0.00 0.00 0.00 83 1022.9
20260502102505 -2 215 0.0 0.0 0.00 0.00 0.00 83 1022.8
20260502102003 -2 215 0.0 1.6 0.00 0.00 0.00 83 1022.6
20260502101500 -2 215 1.6 1.6 0.00 0.00 0.00 82 1022.6
20260502100959 -2 191 0.0 0.0 0.00 0.00 0.00 83 1022.8
20260502100457 -2 223 0.0 0.0 0.00 0.00 0.00 83 1022.8
20260502091431 -2 245 0.0 1.6 0.00 0.00 0.00 82 1022.5
20260502090928 -2 245 0.0 0.0 0.00 0.00 0.00 81 1022.4
20260502090425 -2 245 1.6 1.6 0.00 0.00 0.00 82 1022.3
20260502071320 0 232 0.0 1.6 0.00 0.00 0.00 80 1023.1
20260502070818 0 227 0.0 0.0 0.00 0.00 0.00 80 1023.0
20260502070315 0 228 0.0 0.0 0.00 0.00 0.00 79 1022.9
20260502065814 0 263 0.0 1.6 0.00 0.00 0.00 79 1023.0
20260502065312 0 278 0.0 1.6 0.00 0.00 0.00 78 1022.9
20260502064810 0 277 0.0 1.6 0.00 0.00 0.00 78 1022.8
20260502064308 0 285 0.0 0.0 0.00 0.00 0.00 77 1022.9
20260502063805 0 286 0.0 0.0 0.00 0.00 0.00 77 1023.0
20260502063303 0 292 0.0 1.6 0.00 0.00 0.00 77 1022.9
20260502062759 1 296 0.0 1.6 0.00 0.00 0.00 76 1023.1
20260502062257 1 296 0.0 1.6 0.00 0.00 0.00 76 1023.0
20260502061755 1 288 0.0 1.6 0.00 0.00 0.00 77 1023.0
20260502061253 1 279 0.0 0.0 0.00 0.00 0.00 77 1023.0
20260502060753 1 280 0.0 0.0 0.00 0.00 0.00 75 1023.0
20260502060249 1 292 0.0 1.6 0.00 0.00 0.00 76 1023.0
20260502055747 1 317 0.0 1.6 0.00 0.00 0.00 79 1023.2
20260502055244 1 319 0.0 0.0 0.00 0.00 0.00 75 1023.0
20260502054743 1 232 0.0 1.6 0.00 0.00 0.00 74 1023.0
20260502054241 2 210 1.6 1.6 0.00 0.00 0.00 73 1023.1
20260502053738 2 174 0.0 0.0 0.00 0.00 0.00 73 1023.1
20260502053235 2 173 0.0 0.0 0.00 0.00 0.00 72 1023.0
20260502052733 2 175 0.0 0.0 0.00 0.00 0.00 73 1022.8
20260502052231 2 216 0.0 1.6 0.00 0.00 0.00 71 1022.8
20260502051729 2 179 0.0 1.6 0.00 0.00 0.00 66 1023.0
20260502051227 2 287 0.0 1.6 0.00 0.00 0.00 66 1022.8
20260502050723 2 155 0.0 0.0 0.00 0.00 0.00 69 1023.0
20260502050219 2 156 0.0 0.0 0.00 0.00 0.00 72 1023.0
20260502045716 3 155 0.0 0.0 0.00 0.00 0.00 69 1023.0
20260502045213 2 156 0.0 0.0 0.00 0.00 0.00 66 1022.8
20260502044710 3 156 0.0 0.0 0.00 0.00 0.00 69 1022.9
20260502044206 3 156 0.0 0.0 0.00 0.00 0.00 69 1022.9
20260502043704 3 155 0.0 0.0 0.00 0.00 0.00 68 1023.1
20260502043201 3 180 0.0 0.0 0.00 0.00 0.00 66 1022.9
20260502042700 3 290 0.0 0.0 0.00 0.00 0.00 65 1022.8
20260502042158 3 290 0.0 0.0 0.00 0.00 0.00 63 1022.6
20260502041655 4 340 0.0 1.6 0.00 0.00 0.00 62 1023.0
20260502041152 4 353 0.0 1.6 0.00 0.00 0.00 57 1023.1
20260502040649 5 17 1.6 3.2 0.00 0.00 0.00 59 1022.9
20260502040146 5 204 0.0 1.6 0.00 0.00 0.00 54 1022.9
20260502035642 5 189 0.0 1.6 0.00 0.00 0.00 58 1022.8
20260502035139 6 137 1.6 1.6 0.00 0.00 0.00 53 1022.8
20260502034637 6 253 0.0 0.0 0.00 0.00 0.00 50 1022.6
20260502034136 6 253 0.0 0.0 0.00 0.00 0.00 51 1022.8
20260502033633 6 253 0.0 1.6 0.00 0.00 0.00 49 1022.4
20260502033131 6 252 0.0 0.0 0.00 0.00 0.00 52 1022.5
20260502032626 6 253 0.0 0.0 0.00 0.00 0.00 52 1022.3
20260502032123 6 252 0.0 1.6 0.00 0.00 0.00 54 1022.2
20260502031621 6 253 0.0 1.6 0.00 0.00 0.00 52 1022.1
20260502031119 6 252 1.6 1.6 0.00 0.00 0.00 52 1021.9
20260502030618 6 247 1.6 1.6 0.00 0.00 0.00 55 1021.8
20260502030115 7 247 1.6 1.6 0.00 0.00 0.00 55 1022.1
20260502025612 7 249 0.0 1.6 0.00 0.00 0.00 51 1021.8
20260502025110 7 253 1.6 3.2 0.00 0.00 0.00 51 1021.8
20260502024608 7 241 0.0 1.6 0.00 0.00 0.00 53 1021.6
20260502024106 7 241 1.6 1.6 0.00 0.00 0.00 52 1021.7
20260502023603 8 245 1.6 1.6 0.00 0.00 0.00 50 1021.5
20260502023100 11 232 1.6 1.6 0.00 0.00 0.00 47 1021.5
20260502022556 11 231 0.0 0.0 0.00 0.00 0.00 32 1021.1
20260502022054 12 231 0.0 0.0 0.00 0.00 0.00 37 1021.5
20260502021551 13 231 0.0 0.0 0.00 0.00 0.00 33 1021.2
20260502021048 15 231 0.0 0.0 0.00 0.00 0.00 30 1021.4
20260502020546 15 231 0.0 0.0 0.00 0.00 0.00 26 1021.4
20260502020042 16 231 0.0 0.0 0.00 0.00 0.00 26 1021.2
20260502015540 17 231 0.0 0.0 0.00 0.00 0.00 24 1021.2
20260502015036 17 231 0.0 0.0 0.00 0.00 0.00 24 1021.1
20260502014533 17 231 0.0 0.0 0.00 0.00 0.00 21 1021.5
20260502014030 17 232 0.0 0.0 0.00 0.00 0.00 20 1021.1
20260502013526 17 232 0.0 1.6 0.00 0.00 0.00 21 1020.8
20260502013022 17 233 1.6 3.2 0.00 0.00 0.00 18 1021.1
20260502012520 18 222 1.6 1.6 0.00 0.00 0.00 20 1020.9
20260502012017 18 222 0.0 1.6 0.00 0.00 0.00 20 1021.1
20260502011514 17 207 0.0 3.2 0.00 0.00 0.00 17 1021.0
20260502011010 18 191 3.2 3.2 0.00 0.00 0.00 17 1020.9
20260502010508 17 207 1.6 1.6 0.00 0.00 0.00 21 1021.2
20260502010004 17 209 1.6 3.2 0.00 0.00 0.00 18 1021.1
20260502005502 18 217 3.2 3.2 0.00 0.00 0.00 18 1021.0
20260502004959 18 263 3.2 4.8 0.00 0.00 0.00 19 1021.1
20260502004454 18 212 1.6 1.6 0.00 0.00 0.00 17 1021.0
20260502003952 17 237 3.2 4.8 0.00 0.00 0.00 19 1021.0
20260502003449 17 199 3.2 4.8 0.00 0.00 0.00 17 1020.9
20260502002945 18 197 3.2 6.4 0.00 0.00 0.00 20 1020.8
20260502002443 18 256 0.0 6.4 0.00 0.00 0.00 16 1020.9
20260502001940 18 272 3.2 4.8 0.00 0.00 0.00 17 1020.9
20260502001438 18 61 1.6 3.2 0.00 0.00 0.00 17 1021.0
20260502000935 18 291 1.6 1.6 0.00 0.00 0.00 17 1020.8
20260502000434 18 311 4.8 9.7 0.00 0.00 0.00 16 1021.0
20260501235929 18 283 6.4 6.4 0.00 0.00 0.00 18 1020.9
20260501235425 17 227 3.2 4.8 0.00 0.00 0.00 20 1021.2
20260501234920 17 185 3.2 6.4 0.00 0.00 0.00 19 1021.0
20260501234418 18 213 3.2 4.8 0.00 0.00 0.00 18 1021.0
20260501233916 18 233 3.2 4.8 0.00 0.00 0.00 16 1021.0
20260501233413 18 250 3.2 4.8 0.00 0.00 0.00 17 1021.1
20260501232908 18 246 1.6 6.4 0.00 0.00 0.00 18 1020.9
20260501232406 18 208 6.4 11.3 0.00 0.00 0.00 19 1021.1
20260501231903 18 189 3.2 4.8 0.00 0.00 0.00 18 1021.1
20260501231401 18 28 0.0 6.4 0.00 0.00 0.00 22 1021.1
20260501230859 18 8 1.6 4.8 0.00 0.00 0.00 18 1021.0
20260501230358 19 16 8.0 17.7 0.00 0.00 0.00 16 1021.1
20260501225855 19 104 0.0 6.4 0.00 0.00 0.00 15 1021.1
20260501225353 21 14 1.6 4.8 0.00 0.00 0.00 16 1021.1
20260501224848 20 106 1.6 3.2 0.00 0.00 0.00 19 1021.0
20260501224346 20 189 0.0 3.2 0.00 0.00 0.00 17 1021.1
20260501223842 19 179 0.0 3.2 0.00 0.00 0.00 20 1021.1
20260501223338 19 292 3.2 4.8 0.00 0.00 0.00 17 1021.1
20260501222834 20 192 3.2 4.8 0.00 0.00 0.00 19 1021.2
20260501222332 20 183 3.2 3.2 0.00 0.00 0.00 16 1021.4
20260501221829 19 96 1.6 3.2 0.00 0.00 0.00 22 1021.4
20260501221326 18 95 0.0 1.6 0.00 0.00 0.00 23 1021.5
20260501220824 18 19 6.4 14.5 0.00 0.00 0.00 20 1021.1
20260501220321 18 203 1.6 3.2 0.00 0.00 0.00 18 1021.2
20260501215817 17 15 0.0 9.7 0.00 0.00 0.00 16 1021.5
20260501215313 18 8 9.7 11.3 0.00 0.00 0.00 19 1021.7
20260501214809 18 291 3.2 9.7 0.00 0.00 0.00 17 1021.4
20260501214304 18 9 1.6 3.2 0.00 0.00 0.00 17 1021.6
20260501213801 17 170 0.0 3.2 0.00 0.00 0.00 21 1022.1
20260501213257 17 354 3.2 6.4 0.00 0.00 0.00 22 1021.5
20260501212753 17 230 8.0 12.9 0.00 0.00 0.00 22 1021.8
20260501212249 17 257 6.4 11.3 0.00 0.00 0.00 22 1021.8
20260501211747 17 298 6.4 11.3 0.00 0.00 0.00 19 1021.9
20260501211244 17 195 1.6 6.4 0.00 0.00 0.00 19 1022.2
20260501210741 18 195 1.6 4.8 0.00 0.00 0.00 20 1022.1
20260501210238 17 52 1.6 3.2 0.00 0.00 0.00 19 1021.8
20260501205734 17 269 3.2 4.8 0.00 0.00 0.00 18 1021.9
20260501205231 17 246 4.8 6.4 0.00 0.00 0.00 19 1022.1
20260501204728 19 163 3.2 3.2 0.00 0.00 0.00 18 1022.2
20260501204225 18 181 0.0 3.2 0.00 0.00 0.00 26 1022.3
20260501203721 18 95 3.2 4.8 0.00 0.00 0.00 26 1022.1
20260501203219 17 249 1.6 3.2 0.00 0.00 0.00 25 1022.2
20260501202715 16 145 1.6 3.2 0.00 0.00 0.00 23 1022.3
20260501202212 17 299 1.6 4.8 0.00 0.00 0.00 22 1022.2
20260501201709 17 216 3.2 4.8 0.00 0.00 0.00 19 1022.4
20260501201206 17 277 1.6 3.2 0.00 0.00 0.00 18 1022.3
20260501200702 17 164 1.6 4.8 0.00 0.00 0.00 18 1022.5
20260501200200 17 17 8.0 12.9 0.00 0.00 0.00 20 1022.5
20260501195657 16 12 12.9 17.7 0.00 0.00 0.00 22 1022.3
20260501195153 17 9 14.5 17.7 0.00 0.00 0.00 19 1022.4
20260501194649 16 34 9.7 12.9 0.00 0.00 0.00 22 1022.5
20260501194144 16 114 1.6 12.9 0.00 0.00 0.00 17 1022.4
20260501193642 16 18 6.4 6.4 0.00 0.00 0.00 23 1022.4
20260501193140 16 288 3.2 6.4 0.00 0.00 0.00 22 1022.4
20260501192637 17 358 6.4 9.7 0.00 0.00 0.00 21 1022.6
20260501192134 17 74 1.6 3.2 0.00 0.00 0.00 25 1022.5
20260501191632 17 35 3.2 6.4 0.00 0.00 0.00 21 1022.5
20260501191128 17 163 1.6 3.2 0.00 0.00 0.00 22 1022.5
20260501190625 17 229 1.6 4.8 0.00 0.00 0.00 23 1022.6
20260501190120 16 107 1.6 1.6 0.00 0.00 0.00 25 1022.6
20260501185616 15 15 6.4 11.3 0.00 0.00 0.00 21 1022.8
20260501185112 15 305 6.4 9.7 0.00 0.00 0.00 20 1022.8
20260501184608 16 4 9.7 14.5 0.00 0.00 0.00 22 1022.8
20260501184103 16 70 3.2 3.2 0.00 0.00 0.00 22 1022.6
20260501183600 16 182 1.6 4.8 0.00 0.00 0.00 24 1022.9
20260501183057 16 156 1.6 3.2 0.00 0.00 0.00 20 1022.8
20260501182554 15 97 1.6 11.3 0.00 0.00 0.00 23 1022.8
20260501182051 15 96 1.6 3.2 0.00 0.00 0.00 23 1022.9
20260501181548 15 160 1.6 9.7 0.00 0.00 0.00 20 1023.0
20260501181045 15 36 6.4 11.3 0.00 0.00 0.00 25 1023.1
20260501180543 15 340 6.4 9.7 0.00 0.00 0.00 27 1023.0
20260501180038 14 30 3.2 6.4 0.00 0.00 0.00 23 1023.1
20260501175535 15 25 3.2 6.4 0.00 0.00 0.00 22 1023.0
20260501175032 14 220 1.6 4.8 0.00 0.00 0.00 21 1023.0
20260501174529 14 236 1.6 6.4 0.00 0.00 0.00 21 1023.1
20260501174027 13 296 3.2 6.4 0.00 0.00 0.00 21 1023.2
20260501173524 14 271 6.4 12.9 0.00 0.00 0.00 21 1023.1
20260501173020 14 285 4.8 12.9 0.00 0.00 0.00 21 1023.3
20260501172516 14 2 4.8 9.7 0.00 0.00 0.00 22 1023.2
20260501172012 14 210 1.6 3.2 0.00 0.00 0.00 24 1023.0
20260501171508 13 152 1.6 3.2 0.00 0.00 0.00 26 1023.2
20260501171005 13 298 4.8 9.7 0.00 0.00 0.00 26 1023.3
20260501170501 13 286 3.2 4.8 0.00 0.00 0.00 24 1023.5
20260501165959 13 308 6.4 6.4 0.00 0.00 0.00 26 1023.3
20260501165456 13 306 3.2 9.7 0.00 0.00 0.00 26 1023.3
20260501164954 13 217 1.6 1.6 0.00 0.00 0.00 26 1023.3
20260501164452 13 282 4.8 11.3 0.00 0.00 0.00 24 1023.5
20260501163948 12 354 12.9 14.5 0.00 0.00 0.00 28 1023.3
20260501163444 12 276 4.8 6.4 0.00 0.00 0.00 25 1023.3
20260501162941 13 339 3.2 11.3 0.00 0.00 0.00 27 1023.5
20260501162437 12 172 0.0 4.8 0.00 0.00 0.00 27 1023.0
20260501161935 13 12 8.0 11.3 0.00 0.00 0.00 32 1023.1
20260501161431 12 99 4.8 6.4 0.00 0.00 0.00 33 1023.3
20260501160928 12 46 1.6 3.2 0.00 0.00 0.00 35 1023.6
20260501160425 11 201 1.6 3.2 0.00 0.00 0.00 34 1023.3
20260501155922 11 31 3.2 4.8 0.00 0.00 0.00 35 1023.3
20260501155419 11 119 1.6 1.6 0.00 0.00 0.00 37 1023.7
20260501154916 10 8 3.2 4.8 0.00 0.00 0.00 38 1023.6
20260501154413 10 101 1.6 3.2 0.00 0.00 0.00 35 1023.6
20260501153910 10 73 1.6 1.6 0.00 0.00 0.00 39 1023.5
20260501153408 10 121 0.0 3.2 0.00 0.00 0.00 35 1023.5
20260501152903 9 117 0.0 1.6 0.00 0.00 0.00 42 1023.7
20260501152401 9 139 1.6 1.6 0.00 0.00 0.00 46 1023.8